Change the Weather History Date:

Sunday, January 27, 2013

  Actual Average Record
Temperature  
Mean Temperature 30 °F -  
Max Temperature 35 °F 25 °F 51 °F (2002)
Min Temperature 24 °F 10 °F -13 °F (1966)
Degree Days  
Heating Degree Days 36    
Moisture  
Dew Point 24 °F    
Average Humidity 79    
Maximum Humidity 93    
Minimum Humidity 59    
Precipitation  
Precipitation 0.13 in - - ()
Sea Level Pressure  
Sea Level Pressure 30.17 in    
Wind  
Wind Speed 12 mph (SSE)    
Max Wind Speed 23 mph    
Max Gust Speed 47 mph    
Visibility 7 miles    
Events Thunderstorm    
Averages and records for this station are not official NWS values.
T = Trace of Precipitation, MM = Missing Value Source: NWS Daily Summary

Daily Weather History Graph

Daily Weather History Graph

Search for Another Location

Airport or City:

Trip Planner

Search our weather history database for the weather conditions in past years. The results will help you decide how hot, cold, wet, or windy it might be!

Date:

Astronomy

Jan. 27, 2013 Rise Set
Actual Time 7:13 AM CST 4:54 PM CST
Civil Twilight 6:42 AM CST 5:25 PM CST
Nautical Twilight 6:07 AM CST 6:00 PM CST
Astronomical Twilight 5:33 AM CST 6:34 PM CST
Moon 5:52 PM CST (1/27) 7:03 AM CST (1/27)
Length of Visible Light 10h 43m
Length of Day
9h 40m
Full, 100% of the Moon is Illuminated
Jan 27
Full
Feb 3
Last Quarter
Feb 10
New
Feb 17
First Quarter
Feb 25
Full

Hourly Weather History & Observations

Time (CST) Temp. Windchill Dew Point Humidity Pressure Visibility Wind Dir Wind Speed Gust Speed Precip Events Conditions
12:15 AM 24.8 °F 16.9 °F 14.0 °F 64% 30.34 in 10.0 mi South 6.9 mph - N/A   Overcast
12:35 AM 24.8 °F 19.1 °F 14.0 °F 64% 30.33 in 10.0 mi South 4.6 mph - N/A   Overcast
12:55 AM 24.8 °F 15.3 °F 12.2 °F 59% 30.32 in 10.0 mi South 9.2 mph - N/A   Overcast
1:15 AM 24.8 °F 16.9 °F 14.0 °F 64% 30.33 in 10.0 mi SSW 6.9 mph - N/A   Overcast
1:35 AM 24.8 °F 16.9 °F 14.0 °F 64% 30.32 in 10.0 mi South 6.9 mph - N/A   Overcast
1:55 AM 24.8 °F 16.9 °F 15.8 °F 69% 30.33 in 10.0 mi South 6.9 mph - N/A   Overcast
2:15 AM 26.6 °F 17.5 °F 14.0 °F 59% 30.33 in 10.0 mi South 9.2 mph - N/A   Overcast
2:35 AM 26.6 °F 17.5 °F 15.8 °F 64% 30.33 in 10.0 mi South 9.2 mph - N/A   Overcast
3:15 AM 26.6 °F 16.2 °F 15.8 °F 64% 30.32 in 10.0 mi South 11.5 mph - N/A   Overcast
3:35 AM 26.6 °F 16.2 °F 15.8 °F 64% 30.31 in 10.0 mi South 11.5 mph 16.1 mph N/A   Overcast
3:55 AM 26.6 °F 16.8 °F 15.8 °F 64% 30.31 in 10.0 mi South 10.4 mph 16.1 mph N/A   Overcast
4:15 AM 26.6 °F 16.2 °F 17.6 °F 69% 30.30 in 10.0 mi South 11.5 mph - N/A   Overcast
4:35 AM 26.6 °F 16.2 °F 17.6 °F 69% 30.30 in 10.0 mi South 11.5 mph - N/A   Overcast
4:55 AM 26.6 °F 16.8 °F 17.6 °F 69% 30.29 in 10.0 mi South 10.4 mph - N/A   Overcast
5:15 AM 26.6 °F 16.2 °F 19.4 °F 74% 30.28 in 10.0 mi South 11.5 mph - N/A   Overcast
5:35 AM 28.4 °F 18.5 °F 19.4 °F 69% 30.29 in 10.0 mi South 11.5 mph - N/A   Overcast
5:55 AM 28.4 °F 18.5 °F 19.4 °F 69% 30.28 in 10.0 mi South 11.5 mph - N/A   Overcast
6:15 AM 28.4 °F 18.0 °F 17.6 °F 64% 30.28 in 10.0 mi South 12.7 mph 18.4 mph N/A   Overcast
6:35 AM 28.4 °F 18.0 °F 17.6 °F 64% 30.27 in 10.0 mi South 12.7 mph 17.3 mph N/A   Overcast
6:55 AM 28.4 °F 18.0 °F 19.4 °F 69% 30.28 in 10.0 mi South 12.7 mph - N/A   Scattered Clouds
7:15 AM 28.4 °F 19.7 °F 19.4 °F 69% 30.27 in 10.0 mi South 9.2 mph - N/A   Mostly Cloudy
7:35 AM 28.4 °F 18.0 °F 19.4 °F 69% 30.27 in 10.0 mi South 12.7 mph - N/A   Overcast
7:55 AM 28.4 °F 18.5 °F 19.4 °F 69% 30.27 in 10.0 mi South 11.5 mph - N/A   Overcast
8:15 AM 28.4 °F 17.0 °F 19.4 °F 69% 30.27 in 10.0 mi South 15.0 mph 19.6 mph N/A   Overcast
8:35 AM 28.4 °F 18.5 °F 21.2 °F 74% 30.27 in 10.0 mi South 11.5 mph 17.3 mph N/A   Overcast
8:55 AM 28.4 °F 18.5 °F 21.2 °F 74% 30.28 in 9.0 mi South 11.5 mph - N/A   Overcast
9:15 AM 30.2 °F 20.8 °F 21.2 °F 69% 30.27 in 9.0 mi South 11.5 mph 17.3 mph N/A   Overcast
9:35 AM 30.2 °F 19.3 °F 23.0 °F 75% 30.27 in 9.0 mi South 15.0 mph 18.4 mph N/A   Overcast
9:55 AM 30.2 °F 19.8 °F 24.8 °F 80% 30.27 in 9.0 mi South 13.8 mph 19.6 mph N/A   Overcast
10:15 AM 30.2 °F 17.4 °F 24.8 °F 80% 30.27 in 9.0 mi South 20.7 mph 24.2 mph N/A   Overcast
10:35 AM 30.2 °F 18.9 °F 24.8 °F 80% 30.27 in 9.0 mi South 16.1 mph 23.0 mph N/A   Scattered Clouds
10:55 AM 30.2 °F 18.1 °F 23.0 °F 75% 30.26 in 10.0 mi South 18.4 mph 23.0 mph N/A   Mostly Cloudy
11:15 AM 32.0 °F 21.2 °F 24.8 °F 75% 30.25 in 10.0 mi South 16.1 mph - N/A   Mostly Cloudy
11:35 AM 32.0 °F 20.1 °F 24.8 °F 75% 30.23 in 10.0 mi South 19.6 mph 25.3 mph N/A   Scattered Clouds
11:55 AM 32.0 °F 19.2 °F 24.8 °F 75% 30.21 in 9.0 mi South 23.0 mph 28.8 mph N/A   Mostly Cloudy
12:15 PM 33.8 °F 22.8 °F 24.8 °F 70% 30.19 in 9.0 mi South 18.4 mph 23.0 mph N/A   Scattered Clouds
12:35 PM 33.8 °F 23.5 °F 26.6 °F 75% 30.19 in 9.0 mi South 16.1 mph 24.2 mph N/A   Mostly Cloudy
12:55 PM 33.8 °F 21.9 °F 26.6 °F 75% 30.18 in 8.0 mi South 21.9 mph 27.6 mph N/A   Overcast
1:15 PM 33.8 °F 21.9 °F 26.6 °F 75% 30.17 in 8.0 mi SSE 21.9 mph 28.8 mph N/A   Overcast
1:35 PM 33.8 °F 23.2 °F 26.6 °F 75% 30.17 in 8.0 mi South 17.3 mph 23.0 mph N/A   Overcast
1:55 PM 33.8 °F 22.2 °F 26.6 °F 75% 30.17 in 7.0 mi South 20.7 mph 27.6 mph N/A   Overcast
2:15 PM 32.0 °F 21.6 °F 26.6 °F 80% 30.17 in 3.0 mi South 15.0 mph 21.9 mph N/A   Overcast
2:35 PM 30.2 °F 18.9 °F 28.4 °F 93% 30.16 in 1.2 mi South 16.1 mph - N/A   Overcast
2:55 PM 30.2 °F 20.8 °F 26.6 °F 86% 30.14 in 1.0 mi SSE 11.5 mph - N/A   Overcast
3:15 PM 30.2 °F 20.2 °F 28.4 °F 93% 30.13 in 1.0 mi SSE 12.7 mph - N/A   Overcast
3:35 PM 32.0 °F 20.5 °F 28.4 °F 87% 30.14 in 0.5 mi SSE 18.4 mph - N/A   Overcast
3:55 PM 32.0 °F 21.6 °F 30.2 °F 93% 30.13 in 0.5 mi SSE 15.0 mph - 0.01 in   Overcast
4:15 PM 32.0 °F 20.8 °F 30.2 °F 93% 30.13 in 0.8 mi SSE 17.3 mph 20.7 mph N/A   Overcast
4:35 PM 30.2 °F 18.5 °F 28.4 °F 93% 30.11 in 0.5 mi SSE 17.3 mph - 0.01 in   Overcast
4:55 PM 32.0 °F 21.6 °F 30.2 °F 93% 30.11 in 0.8 mi SSE 15.0 mph - 0.02 in   Overcast
5:15 PM 32.0 °F 20.8 °F 28.4 °F 87% 30.08 in 1.5 mi SE 17.3 mph 25.3 mph N/A   Overcast
5:35 PM 32.0 °F 20.1 °F 30.2 °F 93% 30.05 in 2.0 mi SE 19.6 mph - 0.01 in   Overcast
5:55 PM 32.0 °F 20.5 °F 30.2 °F 93% 30.06 in 5.0 mi SE 18.4 mph 26.5 mph 0.02 in   Overcast
6:15 PM 32.0 °F 19.8 °F 30.2 °F 93% 30.05 in 8.0 mi SE 20.7 mph - N/A   Overcast
6:35 PM 32.0 °F 20.8 °F 30.2 °F 93% 30.05 in 6.0 mi ESE 17.3 mph 23.0 mph N/A   Overcast
6:55 PM 32.0 °F 19.5 °F 28.4 °F 87% 30.03 in 4.0 mi ESE 21.9 mph 27.6 mph 0.01 in   Overcast
7:15 PM 32.0 °F 20.1 °F 28.4 °F 87% 30.01 in 2.0 mi ESE 19.6 mph 47.2 mph 0.06 in Thunderstorm Thunderstorm
7:35 PM 32.0 °F 19.8 °F 30.2 °F 93% 30.01 in 3.0 mi ESE 20.7 mph 26.5 mph 0.06 in   Overcast
7:55 PM 32.0 °F 19.8 °F 30.2 °F 93% 30.00 in 3.0 mi SE 20.7 mph 26.5 mph 0.06 in   Overcast
8:15 PM 32.0 °F 19.8 °F 30.2 °F 93% 30.00 in 3.0 mi SE 20.7 mph 24.2 mph N/A   Overcast
8:35 PM 33.8 °F 22.8 °F 30.2 °F 87% 29.98 in 3.0 mi SE 18.4 mph 27.6 mph N/A   Overcast
8:55 PM 33.8 °F 23.2 °F 30.2 °F 87% 29.97 in 3.0 mi SE 17.3 mph 25.3 mph N/A   Overcast
9:15 PM 33.8 °F 23.5 °F 30.2 °F 87% 29.96 in 3.0 mi SE 16.1 mph 24.2 mph N/A   Overcast
9:35 PM 33.8 °F 22.5 °F 30.2 °F 87% 29.94 in 3.0 mi SE 19.6 mph 24.2 mph N/A   Overcast
9:55 PM 33.8 °F 23.9 °F 30.2 °F 87% 29.94 in 3.0 mi SE 15.0 mph 21.9 mph N/A   Overcast
10:15 PM 33.8 °F 23.2 °F 30.2 °F 87% 29.93 in 3.0 mi SSE 17.3 mph 23.0 mph N/A   Overcast
10:35 PM 33.8 °F 24.3 °F 32.0 °F 93% 29.93 in 3.0 mi SE 13.8 mph 21.9 mph N/A   Overcast
10:55 PM 33.8 °F 23.9 °F 32.0 °F 93% 29.92 in 3.0 mi SSE 15.0 mph 23.0 mph N/A   Overcast
11:15 PM 33.8 °F 23.9 °F 32.0 °F 93% 29.91 in 3.0 mi SE 15.0 mph - N/A   Overcast
11:35 PM 35.6 °F 25.5 °F 33.8 °F 93% 29.91 in 3.0 mi SSE 17.3 mph 20.7 mph N/A   Overcast
11:55 PM 35.6 °F 26.6 °F 33.8 °F 93% 29.90 in 3.0 mi SSE 13.8 mph - 0.01 in   Overcast